Overview Statistics Trail Chart Weather Telemetry Raw packets
 

This is the latest recevied weather packets stored in our database for station/object KC2GYU. If no packets are shown the sender has not sent any weather packets the latest 10 day(s).

<< 42 43 44 45 46 47 48 >>
Time Temp. Humidity Pressure Rain* Wind** Luminosity Snow
1777796914 6.67° C 79% 1011.6 hPa 0 mm - 0 W/m² -
1777796611 6.67° C 78% 1011.4 hPa 0 mm - 0 W/m² -
1777796312 6.67° C 78% 1011.8 hPa 0 mm - 0 W/m² -
1777796003 6.67° C 77% 1011.6 hPa 0 mm - 0 W/m² -
1777795699 6.67° C 77% 1011.6 hPa 0 mm - 0 W/m² -
1777795397 7.22° C 77% 1011.4 hPa 0 mm - 0 W/m² -
1777795094 6.67° C 77% 1011.3 hPa 0 mm - 0 W/m² -
1777794789 6.67° C 77% 1011.4 hPa 0 mm - 0 W/m² -
1777794486 6.11° C 79% 1011 hPa 0 mm - 0 W/m² -
1777794181 6.67° C 79% 1011.3 hPa 0 mm - 0 W/m² -
1777793877 6.11° C 78% 1011.5 hPa 0 mm - 0 W/m² -
1777793575 6.11° C 78% 1011.2 hPa 0 mm - 0 W/m² -
1777793273 6.67° C 78% 1011.5 hPa 0 mm - 0 W/m² -
1777792970 6.11° C 79% 1011.5 hPa 0 mm - 0 W/m² -
1777792666 6.67° C 78% 1011.2 hPa 0 mm - 0 W/m² -
1777792363 6.67° C 76% 1011.2 hPa 0 mm - 0 W/m² -
1777792060 6.67° C 75% 1011.2 hPa 0 mm - 0 W/m² -
1777791758 7.22° C 74% 1011.1 hPa 0 mm - 0 W/m² -
1777791456 7.22° C 72% 1011.2 hPa 0 mm - 0 W/m² -
1777791152 7.78° C 71% 1011 hPa 0 mm - 0 W/m² -
1777790850 7.78° C 70% 1011 hPa 0 mm - 0 W/m² -
1777790547 7.78° C 69% 1011.1 hPa 0 mm - 0 W/m² -
1777790244 8.33° C 68% 1011 hPa 0 mm - 0 W/m² -
1777789943 8.33° C 68% 1011.2 hPa 0 mm - 0 W/m² -
1777789640 8.89° C 67% 1011.1 hPa 0 mm - 0 W/m² -

* Rain latest hour (hover to see other rain measurements)
** Current wind speed in m/s (hover to see current wind gust speed)